Flag for U.S.A. Weather past 2 weeks in Rochester, New York, U.S.A.

Now
32 °F

Passing clouds.


Feels Like: 27 °F
Forecast: 29 / 53 °F
Wind: 5 mph from East

Location: Greater Rochester International Airport


UV Index: 3 (Moderate)

Visibility: 10 mi


Pressure: 30.58 "Hg

Humidity: 52%

Dew point: 16 °F

Location of RochesterLocation

Historic Weather in Rochester

°F

Rochester temperature yesterday

Maximum temperature yesterday: 50 °F (at 12:54 AM)
Minimum temperature yesterday: 27 °F (at 11:54 PM)
Average temperature yesterday: 36 °F

Past Weeks' High & Low Weather Summary

 TemperatureHumidityPressure
High82 °F (Apr 13, 3:54 PM)100% (Apr 8, 2:54 AM)30.58 "Hg (Apr 8, 2:54 AM)
Low25 °F (Apr 16, 2:54 AM)20% (Apr 10, 4:54 PM)29.26 "Hg (Apr 8, 6:54 AM)
Average45 °F64%29.94 "Hg
* Reported Apr 1 8:54 PM — Apr 16 8:54 PM, Rochester, Weather by CustomWeather, © 2014

Note: Actual official high and low records may vary slightly from our data, if they occured in-between our weather recording intervals... More about our weather records

Advertising

Historic Weather Conditions — Data for Previous 24 hours

 ConditionsComfort  
Time TempWeatherWind HumidityBarometerVisibility
8:54 PM
Apr 16
32 °FPassing clouds.5 mph52%30.58 "Hg10 mi
7:54 PM33 °FPartly sunny.6 mph52%30.55 "Hg10 mi
6:54 PM34 °FPartly sunny.6 mph48%30.55 "Hg10 mi
5:54 PM35 °FScattered clouds.7 mph48%30.55 "Hg10 mi
4:54 PM36 °FPartly sunny.10 mph46%30.53 "Hg10 mi
3:54 PM36 °FScattered clouds.6 mph46%30.52 "Hg10 mi
2:54 PM34 °FScattered clouds.10 mph50%30.53 "Hg10 mi
1:54 PM35 °FPartly sunny.6 mph36%30.54 "Hg10 mi
12:54 PM35 °FPartly sunny.8 mph42%30.53 "Hg10 mi
11:54 AM33 °FScattered clouds.10 mph43%30.53 "Hg10 mi
10:54 AM31 °FScattered clouds.12 mph47%30.51 "Hg10 mi
9:54 AM30 °FPassing clouds.13 mph47%30.48 "Hg10 mi
8:54 AM27 °FLight snow. More clouds than sun.13 mph58%30.45 "Hg9 mi
7:54 AM26 °FLight snow. Partly sunny.10 mph66%30.43 "Hg8 mi
6:54 AM25 °FPassing clouds.8 mph63%30.38 "Hg10 mi
5:54 AM25 °FPassing clouds.10 mph63%30.33 "Hg10 mi
4:54 AM26 °FPassing clouds.6 mph63%30.28 "Hg10 mi
3:54 AM26 °FOvercast.9 mph60%30.25 "Hg10 mi
2:54 AM25 °FPassing clouds.10 mph63%30.21 "Hg10 mi
1:54 AM26 °FLight snow. Overcast.13 mph57%30.19 "Hg9 mi
12:54 AM26 °FPassing clouds.13 mph50%30.18 "Hg10 mi
11:54 PM
Apr 15
27 °FMostly cloudy.18 mph53%30.16 "Hg10 mi
10:54 PM28 °FLight snow. Mostly cloudy.17 mph69%30.13 "Hg8 mi
9:54 PM29 °FOvercast.16 mph64%30.10 "Hg10 mi
Weather by CustomWeather, © 2014

See weather overview